Simultaneous Nadir Overpasses (SNOs) Predictions

Prediction of SNOs near US between AQUA and NPP Satellite Orbit:

Table of predicted SNOs near US for the next 10.0 days since TLE Epoch: 11/29/2014
Index Date (AQUA) Time (AQUA) AQUA Lat,Lon Date (NPP) Time (NPP) NPP Lat,Lon Distance(km) Time Diff (sec)
1 11/29/2014 18:15:38 44.47, -78.09 11/29/2014 18:17:11 44.19, -79.52 117.33 93
2 11/29/2014 19:52:00 35.45, -99.95 11/29/2014 19:56:04 35.08,-101.87 179.32 244
3 12/02/2014 07:45:48 20.01, -89.53 12/02/2014 07:43:30 19.98, -89.46 8.11 138
4 12/02/2014 09:16:22 49.90,-105.34 12/02/2014 09:16:26 49.90,-105.47 9.02 4
5 12/04/2014 20:14:26 49.98,-109.53 12/04/2014 20:06:39 50.08,-108.88 47.99 467
6 12/07/2014 17:26:58 48.30, -67.09 12/07/2014 17:27:26 48.06, -68.36 98.24 28
7 12/07/2014 19:03:20 39.31, -88.66 12/07/2014 19:06:19 38.98, -90.41 155.99 179
8 12/07/2014 20:39:43 30.32,-110.82 12/07/2014 20:45:12 29.83,-113.07 223.88 329




NCC Satellite Simultaneous Nadir Overpasses (SNOs) Prediction Service
